Regional Weather Roundup
Issued by NWS Cleveland, OH

Home | Current Version | Previous Version | Graphics & Text | Print | Product List | Glossary On
Versions: 1 2 3 4 5 6 7 8 9 10 11 12 13 14 15 16 17 18 19 20 21 22 23 24 25 26 27 28 29 30 31 32 33 34 35 36 37 38 39 40 41 42 43 44 45 46 47 48 49 50
000
ASUS41 KCLE 072002
RWRCLE
OHIO REGIONAL WEATHER ROUNDUP
NATIONAL WEATHER SERVICE CLEVELAND, OH
400 PM EDT TUE JUL 07 2015

NOTE: "FAIR" INDICATES FEW OR NO CLOUDS BELOW 12,000 FEET WITH NO
SIGNIFICANT WEATHER AND/OR OBSTRUCTIONS TO VISIBILITY.

OHZ001>008-015>018-024>027-034-035-043-044-072100-
   NORTHWEST OHIO

CITY           SKY/WX    TMP DP  RH WIND       PRES   REMARKS
DEFIANCE       LGT RAIN  71  68  90 NW8       29.92R
FINDLAY        LGT RAIN  72  68  87 SW9       29.91F FOG
TOLEDO EXPRESS HVY RAIN  73  71  93 SW8       29.89R FOG
TOLEDO EXEC    CLOUDY    75  70  84 SW13      29.90R
LIMA           LGT RAIN  71  71 100 SW5       29.93F
$$

OHZ009>014-019>023-028>033-038-089-072100-
   NORTHEAST OHIO

CITY           SKY/WX    TMP DP  RH WIND       PRES   REMARKS
CLE-HOPKINS    TSTM      71  68  90 W15G25    29.93S VSB 1
CLE-LAKEFRONT  LGT RAIN  72  68  87 W12       29.90F
CUY CO. ARPT   LGT RAIN  75  70  83 W13       29.93R
LORAIN-ELYRIA  LGT RAIN  70  70 100 W9        29.92S FOG
ASHTABULA      CLOUDY    83  71  67 SW14G21   29.90S
AKRON-CANTON   CLOUDY    84  68  58 SW21      29.92F
WOOSTER        CLOUDY    80  69  69 SW16G26   29.93S
MANSFIELD      CLOUDY    77  71  82 SW8       29.93F
YOUNGSTOWN     CLOUDY    82  70  66 SW12      29.92F
$$

OHZ042-051>053-060>062-070>072-077>081-072100-
  SOUTHWEST OHIO

CITY           SKY/WX    TMP DP  RH WIND       PRES   REMARKS
CINC-COVINGTON LGT RAIN  76  71  85 SW13G24   29.96R
CINC-LUNKEN    CLOUDY    80  71  74 SW16G23   29.95R
HAMILTON       CLOUDY    80  72  76 VRB7      29.94F
DAYTON         CLOUDY    79  71  76 SW17      29.94S
WRIGHT-PAT AFB CLOUDY    77  71  81 SW14      29.93S
DAYTON GENERAL CLOUDY    78  70  76 SW12      29.94S
WILMINGTON     CLOUDY    78  69  73 SW14      29.95R
$$

OHZ036-037-039>041-045>050-054>059-063>069-073>076-082>088-072100-
  CENTRAL AND SOUTHEAST OHIO

CITY           SKY/WX    TMP DP  RH WIND       PRES   REMARKS
COLUMBUS       LGT RAIN  80  72  76 S14G20    29.91F
OSU AIRPORT    TSTM      75  72  90 SW6       29.92F FOG
BOLTON FIELD   NOT AVBL
RICKENBACK AFB NOT AVBL
NEWARK         CLOUDY    83  71  67 S8        29.93F
MARION         RAIN      71  67  87 W6        29.94R FOG
LANCASTER      CLOUDY    83  71  67 S13       29.93F
ZANESVILLE     NOT AVBL
NEW PHILLY     PTSUNNY   81  70  69 S9G18     29.94F
$$



USA.gov is the U.S. government's official web portal to all federal, state and local government web resources and services.